TimeCST,TemperatureF,Dew PointF,Humidity,Sea Level PressureIn,VisibilityMPH,Wind Direction,Wind SpeedMPH,Gust SpeedMPH,PrecipitationIn,Events,Conditions,WindDirDegrees,DateUTC
12:08 AM,42.8,41.0,93,29.98,1.5,ESE,8.1,-,N/A,,Overcast,110,2012-12-03 06:08:00
12:15 AM,42.8,41.0,93,29.98,1.0,ESE,8.1,-,N/A,,Overcast,110,2012-12-03 06:15:00
12:23 AM,42.8,41.0,93,29.98,0.8,East,6.9,-,N/A,,Overcast,90,2012-12-03 06:23:00
12:45 AM,42.8,42.8,100,29.97,0.2,East,9.2,-,N/A,Fog,Fog,90,2012-12-03 06:45:00
12:56 AM,43.0,42.1,97,29.96,0.2,East,10.4,-,N/A,Fog,Fog,90,2012-12-03 06:56:00
1:56 AM,45.0,44.1,97,29.95,0.2,East,8.1,-,N/A,Fog,Fog,90,2012-12-03 07:56:00
2:56 AM,46.0,45.0,96,29.93,0.2,East,6.9,-,N/A,Fog,Fog,90,2012-12-03 08:56:00
3:17 AM,46.4,46.4,100,29.92,0.5,East,5.8,-,N/A,Fog,Fog,100,2012-12-03 09:17:00
3:37 AM,48.2,46.4,93,29.91,1.2,ESE,5.8,-,N/A,,Overcast,120,2012-12-03 09:37:00
3:51 AM,48.2,48.2,100,29.89,2.0,SE,6.9,-,N/A,,Overcast,130,2012-12-03 09:51:00
3:56 AM,48.9,48.0,97,29.88,1.8,ESE,6.9,-,N/A,,Overcast,110,2012-12-03 09:56:00
4:33 AM,48.2,46.4,93,29.88,0.5,East,9.2,-,N/A,Fog,Fog,90,2012-12-03 10:33:00
4:56 AM,48.9,48.0,97,29.86,0.8,East,8.1,-,N/A,,Mist,100,2012-12-03 10:56:00
5:56 AM,48.9,48.0,97,29.85,0.8,East,9.2,-,N/A,,Mist,100,2012-12-03 11:56:00
6:39 AM,48.2,48.2,100,29.84,1.0,East,9.2,-,N/A,,Overcast,90,2012-12-03 12:39:00
6:56 AM,50.0,48.0,93,29.84,1.2,East,8.1,-,N/A,,Overcast,90,2012-12-03 12:56:00
7:39 AM,51.8,50.0,94,29.82,2.5,ESE,8.1,-,N/A,,Overcast,120,2012-12-03 13:39:00
8:03 AM,51.8,50.0,94,29.82,2.5,SE,5.8,-,N/A,,Overcast,130,2012-12-03 14:03:00
8:16 AM,51.8,51.8,100,29.81,3.0,East,4.6,-,N/A,,Overcast,100,2012-12-03 14:16:00
8:56 AM,54.0,52.0,93,29.79,4.0,ESE,8.1,-,N/A,,Overcast,120,2012-12-03 14:56:00
9:41 AM,57.2,55.4,94,29.77,5.0,South,12.7,-,N/A,,Overcast,170,2012-12-03 15:41:00
10:56 AM,61.0,57.0,87,29.72,4.0,SSE,16.1,21.9,N/A,,Overcast,160,2012-12-03 16:56:00
11:56 AM,62.1,57.0,84,29.70,6.0,South,11.5,24.2,N/A,,Haze,190,2012-12-03 17:56:00
12:54 PM,62.6,57.2,82,29.68,6.0,SSW,16.1,23.0,N/A,,Haze,200,2012-12-03 18:54:00
12:56 PM,63.0,57.0,81,29.67,6.0,SSW,13.8,23.0,N/A,,Haze,200,2012-12-03 18:56:00
1:29 PM,62.6,57.2,82,29.67,2.0,SSW,15.0,-,0.00,Rain,Light Rain,200,2012-12-03 19:29:00
1:56 PM,62.1,59.0,90,29.66,3.0,SSW,15.0,-,0.01,Rain,Light Rain,200,2012-12-03 19:56:00
2:05 PM,62.6,59.0,88,29.67,5.0,SSW,12.7,-,N/A,,Overcast,200,2012-12-03 20:05:00
2:32 PM,62.6,59.0,88,29.66,6.0,South,11.5,-,N/A,,Overcast,190,2012-12-03 20:32:00
2:47 PM,62.6,59.0,88,29.66,6.0,South,12.7,20.7,N/A,,Mostly Cloudy,190,2012-12-03 20:47:00
2:56 PM,63.0,57.9,84,29.65,6.0,South,13.8,-,N/A,,Haze,190,2012-12-03 20:56:00
3:56 PM,64.0,57.9,80,29.66,8.0,SSW,10.4,-,N/A,,Overcast,200,2012-12-03 21:56:00
4:56 PM,64.0,57.0,78,29.66,10.0,SSW,9.2,19.6,N/A,,Overcast,210,2012-12-03 22:56:00
5:56 PM,64.0,57.0,78,29.68,7.0,SW,11.5,19.6,0.01,Rain,Light Rain,220,2012-12-03 23:56:00
6:26 PM,62.6,51.8,68,29.72,10.0,West,19.6,26.5,0.00,,Overcast,280,2012-12-04 00:26:00
6:56 PM,60.1,48.9,67,29.72,9.0,West,15.0,25.3,0.00,,Scattered Clouds,260,2012-12-04 00:56:00
7:56 PM,55.0,43.0,64,29.79,10.0,WNW,16.1,23.0,N/A,,Clear,290,2012-12-04 01:56:00
8:56 PM,52.0,41.0,66,29.82,10.0,WNW,9.2,18.4,N/A,,Clear,300,2012-12-04 02:56:00
9:56 PM,51.1,39.9,66,29.87,10.0,West,11.5,-,N/A,,Clear,280,2012-12-04 03:56:00
10:56 PM,48.9,37.9,66,29.91,10.0,WNW,12.7,-,N/A,,Clear,290,2012-12-04 04:56:00
11:56 PM,45.0,36.0,71,29.94,10.0,West,6.9,-,N/A,,Clear,280,2012-12-04 05:56:00